World > North America > United States > Minnesota > Arago

Arago, MN Hourly Weather Conditions

Feedback E-mail the Weather

Quick WX

Arago, MN Weather Maps

°F °C°F °C
Arago Weather Map
UTC Time: 11/28/2022, 07:12
Your Time:

Arago, MN Regional Weather

Expires:202211280800;;931499
ASUS43 KMPX 280710
RWRMN 
WEATHER ROUNDUP FOR MINNESOTA
NATIONAL WEATHER SERVICE TWIN CITIES/CHANHASSEN MN
100 AM CST MON NOV 28 2022


NOTE: "FAIR" INDICATES FEW OR NO CLOUDS BELOW 12,000 FEET WITH NO
SIGNIFICANT WEATHER AND/OR OBSTRUCTIONS TO VISIBILITY. N/A MEANS
CURRENT SKY AND/OR WEATHER CONDITIONS ARE NOT AVAILABLE.


MNZ001>005-007-008-013>017-022>024-027-028-280800-
   Northwest Minnesota   
  
CITY           SKY/WX    TMP DP  RH WIND       PRES   REMARKS
BEMIDJI        MOCLDY    25  20  83 CALM      29.69F                  
HALLOCK        CLOUDY    30  28  93 SE23      29.58F WCI  17          
ROSEAU         CLOUDY    32  27  80 S13       29.65F WCI  22          
WARROAD          N/A     28  25  86 SE9       29.67F WCI  20          
THIEF RVR FALL CLOUDY    29  26  89 SE14      29.66F WCI  18          
CROOKSTON        N/A     30  25  80 SE18      29.63F WCI  18          
FOSSTON        MOCLDY    28  23  80 SE9       29.66F WCI  20          
DETROIT LAKES  MOCLDY    27  23  86 SE6       29.67F WCI  20          
MOORHEAD       MOCLDY    30  25  80 S16       29.65F WCI  19          
PARK RAPIDS    MOCLDY    24  20  84 S12       29.69F WCI  13          
MAHNOMEN       FAIR      28  24  85 SE7       29.67S WCI  20          
$$

SKY/WX - Weather  TMP - Temperature  DP - Dew Point  RH - Humidity
WIND - Wind Direction/Speed PRES - Barometric Pressure VSB - Visibility
WCI - Wind Chill Index E13G22 Wind - East Wind 13 mph/Gusts of 22 mph

Trending Headlines

Trending Entertainment Headlines

Arago Radar Loop

Use the map search tool if you want to place a location marker on the radar map...

Arago Quick Facts

National Two Day Weather Forecast


E-mail the Arago Weather Forecast

Voice your opinion or tell us about page issues...